User: anonymous   Login
Location: Caltech
(34.1382°N, 118.1253°W)
Time: 06:58:50
(UTC-07:00)
Language:

Cosmos 1943 Rocket - Orbit

View from above orbital plane
View from above orbital plane
View from above satellite
View from above satellite

Ground track
Ground track

The orbit data is extracted from the following two-line orbital elements,

1 19120U 88039B   16205.84206169 -.00000112 +00000-0 -30552-4 0  9996
2 19120 071.0160 298.6874 0023118 326.7339 033.2332 14.19153302459533
Epoch (UTC): 23 July 2016 20:12:34
Eccentricity: 0.0023118
inclination: 71.0160°
perigee height: 811 km
apogee height: 845 km
right ascension of ascending node: 298.6874°
argument of perigee: 326.7339°
revolutions per day: 14.19153302
mean anomaly at epoch: 33.2332°
orbit number at epoch: 45953

The dashed part of the orbit path shows where the satellite is in the earth's shadow,  

DLR